Showing default

OT-FOREST-19 PATADASTRA, 69001

Orbit data source: Space-Track

OT-FOREST-19 PATADASTRA, 69001 is a German payload satellite in SSO that was launched on Sun, 03 May 2026 UTC via an FALCON 9 launch vehicle from the Air Force Western Test Range (AFWTR). Payload-class satellites include a variety of spacecraft equipped with specific instruments for various scientific and technological missions. These include communications satellites like Starlink; space stations such as the ISS; scientific satellites like the Hubble; Earth observation satellites from companies like Planet Labs, Umbra, and HawkEye 360; GPS; miniature CubeSats for education and research; and military/defense satellites.

Loading next visibility...
Identifier
69001, 2026-100X
Orbit
SSO
Country
Flag of DEDE / GER
Related business
Manufacturer
OroraTech
Mission
Operational spacecraft
Bus & Motor
CUBESAT 8U, Unknown motor
Mass
~15 kg wet, ~15 kg dry
Launch date (UTC)
2026-05-03 (2 months ago)
Launch vehicle
FALCON 9
Launch site
Air Force Western Test Range (AFWTR)
Object type
Payload
Rocket body
Debris
Shape & HBR
Unknown shape, 1.1 m
Radar Cross Section
Medium (>0.1 m² and <1 m²)

Expand to show TLE details & history
Last TLE update: 20 hours ago

TLE from 20 hours ago
0 OT-FOREST-19 PATADASTRA
1 69001U 26100X   26174.96586934  .00000772  00000-0  81124-4 0  9991
2 69001  97.7366  72.3397 0002445  55.0342 305.1106 14.92276670  7705
Epoch: 2026-06-23T23:10Z
TLE epoch observation values (Epoch: 2026-06-23T23:10:51.110Z)
Latitude
-0.0001°
Longitude
172.49689°
Altitude
592.902 km
Speed
7.564 km/s
True Right ascension
04h 49m 21s
True Declination
0° 00' 00"
Sunlit
Object was in daylight at epoch
Visualization orbit readout
Latitude
Unknown
Longitude
Unknown
Altitude
Unknown
Speed
Unknown
Apparent Right ascension
Unknown
Apparent Declination
Unknown
Sunlit
N/A
Visualization observer readout
Local Sidereal Time
06:07:43
Azimuth
Unknown
Elevation
Unknown
Doppler factor
Unknown
Orbital elements
Apogee altitude
589.559 km
Perigee altitude
586.153 km
Semi-major axis
6,965.993 km
Eccentricity
0.00024
Inclination
97.7366°
RAAN
72.3397°
Arg. of periapsis
55.0342°
True anomaly
305.08768°
Mean anomaly
305.1106°
Eccentric anomaly
305.09914°
Mean motion
3.73309 °/min
Orbital period
96.43 mins
BSTAR
0.000081124
Loading maneuver chart data...
Computing Atmospheric mass density...
Loading historical data...
Loading historical data...
Loading historical data...
Loading historical data...
Loading historical data...
Loading historical data...
Loading historical data...

Documentation

Showing up to 5 results
|